Year,Month,Day,Hour,Minute,Value (Times are PST for windgust in km/hr)
2014,09,20,00,00,14.50
2014,09,20,00,01,16.10
2014,09,20,00,02,17.70
2014,09,20,00,03,17.70
2014,09,20,00,04,16.10
2014,09,20,00,05,16.10
2014,09,20,00,06,16.10
2014,09,20,00,07,17.70
2014,09,20,00,08,16.10
2014,09,20,00,09,19.30
2014,09,20,00,10,19.30
2014,09,20,00,11,14.50
2014,09,20,00,12,19.30
2014,09,20,00,13,17.70
2014,09,20,00,14,17.70
2014,09,20,00,15,19.30
2014,09,20,00,16,19.30
2014,09,20,00,17,20.90
2014,09,20,00,18,19.30
2014,09,20,00,19,19.30
2014,09,20,00,20,19.30
2014,09,20,00,21,19.30
2014,09,20,00,22,20.90
2014,09,20,00,23,19.30
2014,09,20,00,24,19.30
2014,09,20,00,25,19.30
2014,09,20,00,26,19.30
2014,09,20,00,27,19.30
2014,09,20,00,28,20.90
2014,09,20,00,29,19.30
2014,09,20,00,30,19.30
2014,09,20,00,31,17.70
2014,09,20,00,32,19.30
2014,09,20,00,33,17.70
2014,09,20,00,34,17.70
2014,09,20,00,35,17.70
2014,09,20,00,36,19.30
2014,09,20,00,37,17.70
2014,09,20,00,38,19.30
2014,09,20,00,39,16.10
2014,09,20,00,40,16.10
2014,09,20,00,41,19.30
2014,09,20,00,42,19.30
2014,09,20,00,43,17.70
2014,09,20,00,44,16.10
2014,09,20,00,45,16.10
2014,09,20,00,46,17.70
2014,09,20,00,47,16.10
2014,09,20,00,48,19.30
2014,09,20,00,49,22.50
2014,09,20,00,50,24.20
2014,09,20,00,51,22.50
2014,09,20,00,52,24.20
2014,09,20,00,53,22.50
2014,09,20,00,54,20.90
2014,09,20,00,55,24.20
2014,09,20,00,56,17.70
2014,09,20,00,57,19.30
2014,09,20,00,58,22.50
2014,09,20,00,59,16.10
2014,09,20,01,00,17.70
2014,09,20,01,01,16.10
2014,09,20,01,02,11.30
2014,09,20,01,03,16.10
2014,09,20,01,04,16.10
2014,09,20,01,05,17.70
2014,09,20,01,06,16.10
2014,09,20,01,07,16.10
2014,09,20,01,08,17.70
2014,09,20,01,09,16.10
2014,09,20,01,10,17.70
2014,09,20,01,11,17.70
2014,09,20,01,12,17.70
2014,09,20,01,13,16.10
2014,09,20,01,14,17.70
2014,09,20,01,15,14.50
2014,09,20,01,16,16.10
2014,09,20,01,17,16.10
2014,09,20,01,18,16.10
2014,09,20,01,19,11.30
2014,09,20,01,20,16.10
2014,09,20,01,21,17.70
2014,09,20,01,22,14.50
2014,09,20,01,23,16.10
2014,09,20,01,24,17.70
2014,09,20,01,25,17.70
2014,09,20,01,26,17.70
2014,09,20,01,27,17.70
2014,09,20,01,28,17.70
2014,09,20,01,29,17.70
2014,09,20,01,30,17.70
2014,09,20,01,31,19.30
2014,09,20,01,32,17.70
2014,09,20,01,33,16.10
2014,09,20,01,34,17.70
2014,09,20,01,35,19.30
2014,09,20,01,36,17.70
2014,09,20,01,37,19.30
2014,09,20,01,38,17.70
2014,09,20,01,39,16.10
2014,09,20,01,40,17.70
2014,09,20,01,41,16.10
2014,09,20,01,42,17.70
2014,09,20,01,43,16.10
2014,09,20,01,44,16.10
2014,09,20,01,45,17.70
2014,09,20,01,46,17.70
2014,09,20,01,47,19.30
2014,09,20,01,48,12.90
2014,09,20,01,49,14.50
2014,09,20,01,50,17.70
2014,09,20,01,51,16.10
2014,09,20,01,52,14.50
2014,09,20,01,53,17.70
2014,09,20,01,54,17.70
2014,09,20,01,55,17.70
2014,09,20,01,56,14.50
2014,09,20,01,57,9.60
2014,09,20,01,58,9.60
2014,09,20,01,59,16.10
2014,09,20,02,00,16.10
2014,09,20,02,01,11.30
2014,09,20,02,02,12.90
2014,09,20,02,03,16.10
2014,09,20,02,04,14.50
2014,09,20,02,05,11.30
2014,09,20,02,06,16.10
2014,09,20,02,07,16.10
2014,09,20,02,08,17.70
2014,09,20,02,09,14.50
2014,09,20,02,10,12.90
2014,09,20,02,11,11.30
2014,09,20,02,12,8.10
2014,09,20,02,13,6.40
2014,09,20,02,14,8.10
2014,09,20,02,15,8.10
2014,09,20,02,16,8.10
2014,09,20,02,17,8.10
2014,09,20,02,18,6.40
2014,09,20,02,19,6.40
2014,09,20,02,20,6.40
2014,09,20,02,21,6.40
2014,09,20,02,22,6.40
2014,09,20,02,23,6.40
2014,09,20,02,24,6.40
2014,09,20,02,25,6.40
2014,09,20,02,26,6.40
2014,09,20,02,27,8.10
2014,09,20,02,28,9.60
2014,09,20,02,29,9.60
2014,09,20,02,30,9.60
2014,09,20,02,31,9.60
2014,09,20,02,32,8.10
2014,09,20,02,33,11.30
2014,09,20,02,34,11.30
2014,09,20,02,35,9.60
2014,09,20,02,36,9.60
2014,09,20,02,37,11.30
2014,09,20,02,38,12.90
2014,09,20,02,39,9.60
2014,09,20,02,40,11.30
2014,09,20,02,41,11.30
2014,09,20,02,42,11.30
2014,09,20,02,43,11.30
2014,09,20,02,44,14.50
2014,09,20,02,45,14.50
2014,09,20,02,46,11.30
2014,09,20,02,47,16.10
2014,09,20,02,48,14.50
2014,09,20,02,49,14.50
2014,09,20,02,50,11.30
2014,09,20,02,51,11.30
2014,09,20,02,52,11.30
2014,09,20,02,53,11.30
2014,09,20,02,54,12.90
2014,09,20,02,55,11.30
2014,09,20,02,56,11.30
2014,09,20,02,57,11.30
2014,09,20,02,58,11.30
2014,09,20,02,59,11.30
2014,09,20,03,00,9.60
2014,09,20,03,01,6.40
2014,09,20,03,02,11.30
2014,09,20,03,03,9.60
2014,09,20,03,04,9.60
2014,09,20,03,05,11.30
2014,09,20,03,06,22.50
2014,09,20,03,07,14.50
2014,09,20,03,08,22.50
2014,09,20,03,09,16.10
2014,09,20,03,10,24.20
2014,09,20,03,11,20.90
2014,09,20,03,12,17.70
2014,09,20,03,13,16.10
2014,09,20,03,14,19.30
2014,09,20,03,15,22.50
2014,09,20,03,16,22.50
2014,09,20,03,17,22.50
2014,09,20,03,18,20.90
2014,09,20,03,19,20.90
2014,09,20,03,20,19.30
2014,09,20,03,21,22.50
2014,09,20,03,22,22.50
2014,09,20,03,23,17.70
2014,09,20,03,24,20.90
2014,09,20,03,25,27.40
2014,09,20,03,26,22.50
2014,09,20,03,27,22.50
2014,09,20,03,28,19.30
2014,09,20,03,29,19.30
2014,09,20,03,30,16.10
2014,09,20,03,31,11.30
2014,09,20,03,32,14.50
2014,09,20,03,33,17.70
2014,09,20,03,34,20.90
2014,09,20,03,35,19.30
2014,09,20,03,36,16.10
2014,09,20,03,37,16.10
2014,09,20,03,38,19.30
2014,09,20,03,39,16.10
2014,09,20,03,40,11.30
2014,09,20,03,41,14.50
2014,09,20,03,42,12.90
2014,09,20,03,43,20.90
2014,09,20,03,44,17.70
2014,09,20,03,45,19.30
2014,09,20,03,46,19.30
2014,09,20,03,47,16.10
2014,09,20,03,48,17.70
2014,09,20,03,49,17.70
2014,09,20,03,50,16.10
2014,09,20,03,51,16.10
2014,09,20,03,52,17.70
2014,09,20,03,53,17.70
2014,09,20,03,54,14.50
2014,09,20,03,55,8.10
2014,09,20,03,56,11.30
2014,09,20,03,57,14.50
2014,09,20,03,58,19.30
2014,09,20,03,59,14.50
2014,09,20,04,00,19.30
2014,09,20,04,01,16.10
2014,09,20,04,02,20.90
2014,09,20,04,03,22.50
2014,09,20,04,04,27.40
2014,09,20,04,05,22.50
2014,09,20,04,06,25.70
2014,09,20,04,07,27.40
2014,09,20,04,08,19.30
2014,09,20,04,09,22.50
2014,09,20,04,10,24.20
2014,09,20,04,11,24.20
2014,09,20,04,12,20.90
2014,09,20,04,13,14.50
2014,09,20,04,14,16.10
2014,09,20,04,15,17.70
2014,09,20,04,16,20.90
2014,09,20,04,17,14.50
2014,09,20,04,18,19.30
2014,09,20,04,19,19.30
2014,09,20,04,20,16.10
2014,09,20,04,21,16.10
2014,09,20,04,22,16.10
2014,09,20,04,23,16.10
2014,09,20,04,24,19.30
2014,09,20,04,25,19.30
2014,09,20,04,26,14.50
2014,09,20,04,27,12.90
2014,09,20,04,28,12.90
2014,09,20,04,29,9.60
2014,09,20,04,30,9.60
2014,09,20,04,31,9.60
2014,09,20,04,32,14.50
2014,09,20,04,33,14.50
2014,09,20,04,34,9.60
2014,09,20,04,35,6.40
2014,09,20,04,36,9.60
2014,09,20,04,37,6.40
2014,09,20,04,38,4.80
2014,09,20,04,39,6.40
2014,09,20,04,40,6.40
2014,09,20,04,41,4.80
2014,09,20,04,42,3.20
2014,09,20,04,43,6.40
2014,09,20,04,44,9.60
2014,09,20,04,45,9.60
2014,09,20,04,46,9.60
2014,09,20,04,47,8.10
2014,09,20,04,48,8.10
2014,09,20,04,49,8.10
2014,09,20,04,50,17.70
2014,09,20,04,51,19.30
2014,09,20,04,52,19.30
2014,09,20,04,53,16.10
2014,09,20,04,54,11.30
2014,09,20,04,55,9.60
2014,09,20,04,56,14.50
2014,09,20,04,57,11.30
2014,09,20,04,58,14.50
2014,09,20,04,59,12.90
2014,09,20,05,00,12.90
2014,09,20,05,01,9.60
2014,09,20,05,02,8.10
2014,09,20,05,03,4.80
2014,09,20,05,04,8.10
2014,09,20,05,05,4.80
2014,09,20,05,06,4.80
2014,09,20,05,07,11.30
2014,09,20,05,08,11.30
2014,09,20,05,09,6.40
2014,09,20,05,10,4.80
2014,09,20,05,11,11.30
2014,09,20,05,12,8.10
2014,09,20,05,13,6.40
2014,09,20,05,14,4.80
2014,09,20,05,15,6.40
2014,09,20,05,16,11.30
2014,09,20,05,17,14.50
2014,09,20,05,18,16.10
2014,09,20,05,19,9.60
2014,09,20,05,20,9.60
2014,09,20,05,21,6.40
2014,09,20,05,22,6.40
2014,09,20,05,23,6.40
2014,09,20,05,24,6.40
2014,09,20,05,25,6.40
2014,09,20,05,26,6.40
2014,09,20,05,27,9.60
2014,09,20,05,28,11.30
2014,09,20,05,29,14.50
2014,09,20,05,30,16.10
2014,09,20,05,31,11.30
2014,09,20,05,32,9.60
2014,09,20,05,33,9.60
2014,09,20,05,34,6.40
2014,09,20,05,35,6.40
2014,09,20,05,36,4.80
2014,09,20,05,37,4.80
2014,09,20,05,38,8.10
2014,09,20,05,39,6.40
2014,09,20,05,40,8.10
2014,09,20,05,41,9.60
2014,09,20,05,42,9.60
2014,09,20,05,43,9.60
2014,09,20,05,44,8.10
2014,09,20,05,45,6.40
2014,09,20,05,46,6.40
2014,09,20,05,47,9.60
2014,09,20,05,48,9.60
2014,09,20,05,49,11.30
2014,09,20,05,50,9.60
2014,09,20,05,51,14.50
2014,09,20,05,52,14.50
2014,09,20,05,53,14.50
2014,09,20,05,54,16.10
2014,09,20,05,55,14.50
2014,09,20,05,56,16.10
2014,09,20,05,57,11.30
2014,09,20,05,58,14.50
2014,09,20,05,59,17.70
2014,09,20,06,00,19.30
2014,09,20,06,01,20.90
2014,09,20,06,02,20.90
2014,09,20,06,03,17.70
2014,09,20,06,04,17.70
2014,09,20,06,05,16.10
2014,09,20,06,06,11.30
2014,09,20,06,07,11.30
2014,09,20,06,08,11.30
2014,09,20,06,09,12.90
2014,09,20,06,10,9.60
2014,09,20,06,11,9.60
2014,09,20,06,12,9.60
2014,09,20,06,13,9.60
2014,09,20,06,14,9.60
2014,09,20,06,15,12.90
2014,09,20,06,16,6.40
2014,09,20,06,17,9.60
2014,09,20,06,18,8.10
2014,09,20,06,19,6.40
2014,09,20,06,20,8.10
2014,09,20,06,21,4.80
2014,09,20,06,22,11.30
2014,09,20,06,23,11.30
2014,09,20,06,24,6.40
2014,09,20,06,25,6.40
2014,09,20,06,26,9.60
2014,09,20,06,27,9.60
2014,09,20,06,28,14.50
2014,09,20,06,29,16.10
2014,09,20,06,30,14.50
2014,09,20,06,31,19.30
2014,09,20,06,32,16.10
2014,09,20,06,33,16.10
2014,09,20,06,34,17.70
2014,09,20,06,35,16.10
2014,09,20,06,36,17.70
2014,09,20,06,37,19.30
2014,09,20,06,38,16.10
2014,09,20,06,39,24.20
2014,09,20,06,40,20.90
2014,09,20,06,41,19.30
2014,09,20,06,42,17.70
2014,09,20,06,43,20.90
2014,09,20,06,44,22.50
2014,09,20,06,45,17.70
2014,09,20,06,46,19.30
2014,09,20,06,47,19.30
2014,09,20,06,48,19.30
2014,09,20,06,49,17.70
2014,09,20,06,50,19.30
2014,09,20,06,51,17.70
2014,09,20,06,52,16.10
2014,09,20,06,53,20.90
2014,09,20,06,54,19.30
2014,09,20,06,55,16.10
2014,09,20,06,56,16.10
2014,09,20,06,57,17.70
2014,09,20,06,58,11.30
2014,09,20,06,59,16.10
2014,09,20,07,00,16.10
2014,09,20,07,01,12.90
2014,09,20,07,02,14.50
2014,09,20,07,03,17.70
2014,09,20,07,04,14.50
2014,09,20,07,05,17.70
2014,09,20,07,06,19.30
2014,09,20,07,07,16.10
2014,09,20,07,08,17.70
2014,09,20,07,09,19.30
2014,09,20,07,10,19.30
2014,09,20,07,11,14.50
2014,09,20,07,12,12.90
2014,09,20,07,13,11.30
2014,09,20,07,14,14.50
2014,09,20,07,15,11.30
2014,09,20,07,16,11.30
2014,09,20,07,17,16.10
2014,09,20,07,18,14.50
2014,09,20,07,19,16.10
2014,09,20,07,20,16.10
2014,09,20,07,21,14.50
2014,09,20,07,22,19.30
2014,09,20,07,23,17.70
2014,09,20,07,24,16.10
2014,09,20,07,25,14.50
2014,09,20,07,26,14.50
2014,09,20,07,27,14.50
2014,09,20,07,28,16.10
2014,09,20,07,29,14.50
2014,09,20,07,30,9.60
2014,09,20,07,31,12.90
2014,09,20,07,32,14.50
2014,09,20,07,33,11.30
2014,09,20,07,34,11.30
2014,09,20,07,35,9.60
2014,09,20,07,36,11.30
2014,09,20,07,37,6.40
2014,09,20,07,38,9.60
2014,09,20,07,39,11.30
2014,09,20,07,40,11.30
2014,09,20,07,41,14.50
2014,09,20,07,42,11.30
2014,09,20,07,43,11.30
2014,09,20,07,44,8.10
2014,09,20,07,45,6.40
2014,09,20,07,46,6.40
2014,09,20,07,47,4.80
2014,09,20,07,48,3.20
2014,09,20,07,49,3.20
2014,09,20,07,50,1.60
2014,09,20,07,51,1.60
2014,09,20,07,52,1.60
2014,09,20,07,53,3.20
2014,09,20,07,54,3.20
2014,09,20,07,55,3.20
2014,09,20,07,56,4.80
2014,09,20,07,57,3.20
2014,09,20,07,58,3.20
2014,09,20,07,59,9.60
2014,09,20,08,00,9.60
2014,09,20,08,01,8.10
2014,09,20,08,02,4.80
2014,09,20,08,03,4.80
2014,09,20,08,04,6.40
2014,09,20,08,05,3.20
2014,09,20,08,06,6.40
2014,09,20,08,07,4.80
2014,09,20,08,08,4.80
2014,09,20,08,09,6.40
2014,09,20,08,10,9.60
2014,09,20,08,11,11.30
2014,09,20,08,12,11.30
2014,09,20,08,13,9.60
2014,09,20,08,14,16.10
2014,09,20,08,15,9.60
2014,09,20,08,16,6.40
2014,09,20,08,17,6.40
2014,09,20,08,18,16.10
2014,09,20,08,19,8.10
2014,09,20,08,20,9.60
2014,09,20,08,21,11.30
2014,09,20,08,22,14.50
2014,09,20,08,23,16.10
2014,09,20,08,24,12.90
2014,09,20,08,25,14.50
2014,09,20,08,26,9.60
2014,09,20,08,27,11.30
2014,09,20,08,28,17.70
2014,09,20,08,29,14.50
2014,09,20,08,30,16.10
2014,09,20,08,31,11.30
2014,09,20,08,32,16.10
2014,09,20,08,33,17.70
2014,09,20,08,34,17.70
2014,09,20,08,35,16.10
2014,09,20,08,36,16.10
2014,09,20,08,37,14.50
2014,09,20,08,38,9.60
2014,09,20,08,39,16.10
2014,09,20,08,40,16.10
2014,09,20,08,41,24.20
2014,09,20,08,42,22.50
2014,09,20,08,43,20.90
2014,09,20,08,44,12.90
2014,09,20,08,45,24.20
2014,09,20,08,46,25.70
2014,09,20,08,47,24.20
2014,09,20,08,48,19.30
2014,09,20,08,49,6.40
2014,09,20,08,50,16.10
2014,09,20,08,51,22.50
2014,09,20,08,52,24.20
2014,09,20,08,53,22.50
2014,09,20,08,54,24.20
2014,09,20,08,55,22.50
2014,09,20,08,56,20.90
2014,09,20,08,57,20.90
2014,09,20,08,58,17.70
2014,09,20,08,59,25.70
2014,09,20,09,00,25.70
2014,09,20,09,01,22.50
2014,09,20,09,02,17.70
2014,09,20,09,03,20.90
2014,09,20,09,04,24.20
2014,09,20,09,05,20.90
2014,09,20,09,06,22.50
2014,09,20,09,07,17.70
2014,09,20,09,08,11.30
2014,09,20,09,09,27.40
2014,09,20,09,10,29.00
2014,09,20,09,11,25.70
2014,09,20,09,12,25.70
2014,09,20,09,13,24.20
2014,09,20,09,14,22.50
2014,09,20,09,15,24.20
2014,09,20,09,16,12.90
2014,09,20,09,17,16.10
2014,09,20,09,18,14.50
2014,09,20,09,19,22.50
2014,09,20,09,20,24.20
2014,09,20,09,21,20.90
2014,09,20,09,22,16.10
2014,09,20,09,23,19.30
2014,09,20,09,24,20.90
2014,09,20,09,25,20.90
2014,09,20,09,26,24.20
2014,09,20,09,27,24.20
2014,09,20,09,28,16.10
2014,09,20,09,29,24.20
2014,09,20,09,30,24.20
2014,09,20,09,31,24.20
2014,09,20,09,32,22.50
2014,09,20,09,33,22.50
2014,09,20,09,34,22.50
2014,09,20,09,35,22.50
2014,09,20,09,36,24.20
2014,09,20,09,37,19.30
2014,09,20,09,38,27.40
2014,09,20,09,39,24.20
2014,09,20,09,40,25.70
2014,09,20,09,41,24.20
2014,09,20,09,42,27.40
2014,09,20,09,43,24.20
2014,09,20,09,44,24.20
2014,09,20,09,45,22.50
2014,09,20,09,46,20.90
2014,09,20,09,47,25.70
2014,09,20,09,48,25.70
2014,09,20,09,49,20.90
2014,09,20,09,50,22.50
2014,09,20,09,51,22.50
2014,09,20,09,52,29.00
2014,09,20,09,53,25.70
2014,09,20,09,54,27.40
2014,09,20,09,55,29.00
2014,09,20,09,56,25.70
2014,09,20,09,57,32.20
2014,09,20,09,58,30.60
2014,09,20,09,59,25.70
2014,09,20,10,00,29.00
2014,09,20,10,01,30.60
2014,09,20,10,02,32.20
2014,09,20,10,03,27.40
2014,09,20,10,04,29.00
2014,09,20,10,05,27.40
2014,09,20,10,06,22.50
2014,09,20,10,07,22.50
2014,09,20,10,08,30.60
2014,09,20,10,09,19.30
2014,09,20,10,10,24.20
2014,09,20,10,11,25.70
2014,09,20,10,12,27.40
2014,09,20,10,13,24.20
2014,09,20,10,14,25.70
2014,09,20,10,15,24.20
2014,09,20,10,16,20.90
2014,09,20,10,17,22.50
2014,09,20,10,18,20.90
2014,09,20,10,19,11.30
2014,09,20,10,20,24.20
2014,09,20,10,21,27.40
2014,09,20,10,22,27.40
2014,09,20,10,23,25.70
2014,09,20,10,24,25.70
2014,09,20,10,25,20.90
2014,09,20,10,26,24.20
2014,09,20,10,27,24.20
2014,09,20,10,28,25.70
2014,09,20,10,29,25.70
2014,09,20,10,30,20.90
2014,09,20,10,31,30.60
2014,09,20,10,32,29.00
2014,09,20,10,33,30.60
2014,09,20,10,34,32.20
2014,09,20,10,35,29.00
2014,09,20,10,36,29.00
2014,09,20,10,37,25.70
2014,09,20,10,38,24.20
2014,09,20,10,39,19.30
2014,09,20,10,40,25.70
2014,09,20,10,41,29.00
2014,09,20,10,42,29.00
2014,09,20,10,43,24.20
2014,09,20,10,44,24.20
2014,09,20,10,45,24.20
2014,09,20,10,46,27.40
2014,09,20,10,47,25.70
2014,09,20,10,48,25.70
2014,09,20,10,49,17.70
2014,09,20,10,50,16.10
2014,09,20,10,51,9.60
2014,09,20,10,52,14.50
2014,09,20,10,53,19.30
2014,09,20,10,54,17.70
2014,09,20,10,55,22.50
2014,09,20,10,56,22.50
2014,09,20,10,57,25.70
2014,09,20,10,58,24.20
2014,09,20,10,59,25.70
2014,09,20,11,00,25.70
2014,09,20,11,01,25.70
2014,09,20,11,02,32.20
2014,09,20,11,03,33.80
2014,09,20,11,04,29.00
2014,09,20,11,05,30.60
2014,09,20,11,06,20.90
2014,09,20,11,07,22.50
2014,09,20,11,08,22.50
2014,09,20,11,09,22.50
2014,09,20,11,10,35.40
2014,09,20,11,11,30.60
2014,09,20,11,12,30.60
2014,09,20,11,13,27.40
2014,09,20,11,14,25.70
2014,09,20,11,15,33.80
2014,09,20,11,16,27.40
2014,09,20,11,17,27.40
2014,09,20,11,18,24.20
2014,09,20,11,19,22.50
2014,09,20,11,20,29.00
2014,09,20,11,21,30.60
2014,09,20,11,22,25.70
2014,09,20,11,23,25.70
2014,09,20,11,24,27.40
2014,09,20,11,25,27.40
2014,09,20,11,26,30.60
2014,09,20,11,27,30.60
2014,09,20,11,28,32.20
2014,09,20,11,29,32.20
2014,09,20,11,30,32.20
2014,09,20,11,31,30.60
2014,09,20,11,32,32.20
2014,09,20,11,33,29.00
2014,09,20,11,34,27.40
2014,09,20,11,35,33.80
2014,09,20,11,36,32.20
2014,09,20,11,37,25.70
2014,09,20,11,38,30.60
2014,09,20,11,39,33.80
2014,09,20,11,40,24.20
2014,09,20,11,41,27.40
2014,09,20,11,42,33.80
2014,09,20,11,43,33.80
2014,09,20,11,44,32.20
2014,09,20,11,45,32.20
2014,09,20,11,46,29.00
2014,09,20,11,47,33.80
2014,09,20,11,48,27.40
2014,09,20,11,49,30.60
2014,09,20,11,50,30.60
2014,09,20,11,51,30.60
2014,09,20,11,52,29.00
2014,09,20,11,53,30.60
2014,09,20,11,54,25.70
2014,09,20,11,55,29.00
2014,09,20,11,56,32.20
2014,09,20,11,57,32.20
2014,09,20,11,58,32.20
2014,09,20,11,59,32.20
2014,09,20,12,00,27.40
2014,09,20,12,01,32.20
2014,09,20,12,02,30.60
2014,09,20,12,03,35.40
2014,09,20,12,04,27.40
2014,09,20,12,05,22.50
2014,09,20,12,06,19.30
2014,09,20,12,07,27.40
2014,09,20,12,08,27.40
2014,09,20,12,09,33.80
2014,09,20,12,10,32.20
2014,09,20,12,11,24.20
2014,09,20,12,12,27.40
2014,09,20,12,13,33.80
2014,09,20,12,14,30.60
2014,09,20,12,15,33.80
2014,09,20,12,16,30.60
2014,09,20,12,17,29.00
2014,09,20,12,18,27.40
2014,09,20,12,19,27.40
2014,09,20,12,20,19.30
2014,09,20,12,21,30.60
2014,09,20,12,22,30.60
2014,09,20,12,23,29.00
2014,09,20,12,24,22.50
2014,09,20,12,25,27.40
2014,09,20,12,26,24.20
2014,09,20,12,27,32.20
2014,09,20,12,28,25.70
2014,09,20,12,29,27.40
2014,09,20,12,30,30.60
2014,09,20,12,31,29.00
2014,09,20,12,32,30.60
2014,09,20,12,33,27.40
2014,09,20,12,34,25.70
2014,09,20,12,35,27.40
2014,09,20,12,36,22.50
2014,09,20,12,37,27.40
2014,09,20,12,38,24.20
2014,09,20,12,39,14.50
2014,09,20,12,40,30.60
2014,09,20,12,41,32.20
2014,09,20,12,42,27.40
2014,09,20,12,43,32.20
2014,09,20,12,44,35.40
2014,09,20,12,45,27.40
2014,09,20,12,46,25.70
2014,09,20,12,47,24.20
2014,09,20,12,48,25.70
2014,09,20,12,49,27.40
2014,09,20,12,50,20.90
2014,09,20,12,51,22.50
2014,09,20,12,52,25.70
2014,09,20,12,53,24.20
2014,09,20,12,54,32.20
2014,09,20,12,55,30.60
2014,09,20,12,56,27.40
2014,09,20,12,57,32.20
2014,09,20,12,58,30.60
2014,09,20,12,59,45.10
2014,09,20,13,00,32.20
2014,09,20,13,01,22.50
2014,09,20,13,02,25.70
2014,09,20,13,03,32.20
2014,09,20,13,04,33.80
2014,09,20,13,05,30.60
2014,09,20,13,06,29.00
2014,09,20,13,07,29.00
2014,09,20,13,08,32.20
2014,09,20,13,09,40.20
2014,09,20,13,10,33.80
2014,09,20,13,11,35.40
2014,09,20,13,12,37.00
2014,09,20,13,13,33.80
2014,09,20,13,14,35.40
2014,09,20,13,15,38.60
2014,09,20,13,16,37.00
2014,09,20,13,17,37.00
2014,09,20,13,18,30.60
2014,09,20,13,19,33.80
2014,09,20,13,20,27.40
2014,09,20,13,21,32.20
2014,09,20,13,22,29.00
2014,09,20,13,23,32.20
2014,09,20,13,24,35.40
2014,09,20,13,25,33.80
2014,09,20,13,26,30.60
2014,09,20,13,27,30.60
2014,09,20,13,28,35.40
2014,09,20,13,29,30.60
2014,09,20,13,30,29.00
2014,09,20,13,31,30.60
2014,09,20,13,32,29.00
2014,09,20,13,33,32.20
2014,09,20,13,34,30.60
2014,09,20,13,35,25.70
2014,09,20,13,36,33.80
2014,09,20,13,37,33.80
2014,09,20,13,38,27.40
2014,09,20,13,39,27.40
2014,09,20,13,40,33.80
2014,09,20,13,41,24.20
2014,09,20,13,42,25.70
2014,09,20,13,43,19.30
2014,09,20,13,44,27.40
2014,09,20,13,45,30.60
2014,09,20,13,46,25.70
2014,09,20,13,47,30.60
2014,09,20,13,48,29.00
2014,09,20,13,49,27.40
2014,09,20,13,50,35.40
2014,09,20,13,51,27.40
2014,09,20,13,52,32.20
2014,09,20,13,53,29.00
2014,09,20,13,54,19.30
2014,09,20,13,55,29.00
2014,09,20,13,56,33.80
2014,09,20,13,57,33.80
2014,09,20,13,58,37.00
2014,09,20,13,59,32.20
2014,09,20,14,00,37.00
2014,09,20,14,01,33.80
2014,09,20,14,02,32.20
2014,09,20,14,03,32.20
2014,09,20,14,04,33.80
2014,09,20,14,05,29.00
2014,09,20,14,06,27.40
2014,09,20,14,07,30.60
2014,09,20,14,08,25.70
2014,09,20,14,09,19.30
2014,09,20,14,10,30.60
2014,09,20,14,11,27.40
2014,09,20,14,12,32.20
2014,09,20,14,13,37.00
2014,09,20,14,14,38.60
2014,09,20,14,15,33.80
2014,09,20,14,16,33.80
2014,09,20,14,17,33.80
2014,09,20,14,18,37.00
2014,09,20,14,19,37.00
2014,09,20,14,20,32.20
2014,09,20,14,21,30.60
2014,09,20,14,22,35.40
2014,09,20,14,23,32.20
2014,09,20,14,24,27.40
2014,09,20,14,25,30.60
2014,09,20,14,26,19.30
2014,09,20,14,27,24.20
2014,09,20,14,28,16.10
2014,09,20,14,29,19.30
2014,09,20,14,30,37.00
2014,09,20,14,31,32.20
2014,09,20,14,32,32.20
2014,09,20,14,33,32.20
2014,09,20,14,34,29.00
2014,09,20,14,35,27.40
2014,09,20,14,36,24.20
2014,09,20,14,37,22.50
2014,09,20,14,38,25.70
2014,09,20,14,39,24.20
2014,09,20,14,40,29.00
2014,09,20,14,41,30.60
2014,09,20,14,42,27.40
2014,09,20,14,43,32.20
2014,09,20,14,44,32.20
2014,09,20,14,45,33.80
2014,09,20,14,46,35.40
2014,09,20,14,47,32.20
2014,09,20,14,48,29.00
2014,09,20,14,49,22.50
2014,09,20,14,50,24.20
2014,09,20,14,51,20.90
2014,09,20,14,52,20.90
2014,09,20,14,53,20.90
2014,09,20,14,54,22.50
2014,09,20,14,55,25.70
2014,09,20,14,56,30.60
2014,09,20,14,57,32.20
2014,09,20,14,58,24.20
2014,09,20,14,59,29.00
2014,09,20,15,00,25.70
2014,09,20,15,01,25.70
2014,09,20,15,02,19.30
2014,09,20,15,03,22.50
2014,09,20,15,04,25.70
2014,09,20,15,05,29.00
2014,09,20,15,06,27.40
2014,09,20,15,07,27.40
2014,09,20,15,08,32.20
2014,09,20,15,09,32.20
2014,09,20,15,10,33.80
2014,09,20,15,11,30.60
2014,09,20,15,12,29.00
2014,09,20,15,13,32.20
2014,09,20,15,14,30.60
2014,09,20,15,15,32.20
2014,09,20,15,16,29.00
2014,09,20,15,17,29.00
2014,09,20,15,18,30.60
2014,09,20,15,19,33.80
2014,09,20,15,20,32.20
2014,09,20,15,21,29.00
2014,09,20,15,22,30.60
2014,09,20,15,23,29.00
2014,09,20,15,24,30.60
2014,09,20,15,25,29.00
2014,09,20,15,26,25.70
2014,09,20,15,27,30.60
2014,09,20,15,28,30.60
2014,09,20,15,29,30.60
2014,09,20,15,30,33.80
2014,09,20,15,31,29.00
2014,09,20,15,32,27.40
2014,09,20,15,33,29.00
2014,09,20,15,34,25.70
2014,09,20,15,35,27.40
2014,09,20,15,36,24.20
2014,09,20,15,37,14.50
2014,09,20,15,38,19.30
2014,09,20,15,39,19.30
2014,09,20,15,40,25.70
2014,09,20,15,41,32.20
2014,09,20,15,42,29.00
2014,09,20,15,43,35.40
2014,09,20,15,44,29.00
2014,09,20,15,45,32.20
2014,09,20,15,46,32.20
2014,09,20,15,47,37.00
2014,09,20,15,48,30.60
2014,09,20,15,49,30.60
2014,09,20,15,50,37.00
2014,09,20,15,51,32.20
2014,09,20,15,52,27.40
2014,09,20,15,53,24.20
2014,09,20,15,54,24.20
2014,09,20,15,55,29.00
2014,09,20,15,56,25.70
2014,09,20,15,57,32.20
2014,09,20,15,58,27.40
2014,09,20,15,59,37.00
2014,09,20,16,00,32.20
2014,09,20,16,01,29.00
2014,09,20,16,02,27.40
2014,09,20,16,03,32.20
2014,09,20,16,04,32.20
2014,09,20,16,05,27.40
2014,09,20,16,06,25.70
2014,09,20,16,07,19.30
2014,09,20,16,08,19.30
2014,09,20,16,09,25.70
2014,09,20,16,10,20.90
2014,09,20,16,11,27.40
2014,09,20,16,12,32.20
2014,09,20,16,13,29.00
2014,09,20,16,14,24.20
2014,09,20,16,15,24.20
2014,09,20,16,16,27.40
2014,09,20,16,17,32.20
2014,09,20,16,18,37.00
2014,09,20,16,19,32.20
2014,09,20,16,20,29.00
2014,09,20,16,21,25.70
2014,09,20,16,22,30.60
2014,09,20,16,23,32.20
2014,09,20,16,24,33.80
2014,09,20,16,25,29.00
2014,09,20,16,26,25.70
2014,09,20,16,27,29.00
2014,09,20,16,28,30.60
2014,09,20,16,29,27.40
2014,09,20,16,30,25.70
2014,09,20,16,31,25.70
2014,09,20,16,32,27.40
2014,09,20,16,33,25.70
2014,09,20,16,34,14.50
2014,09,20,16,35,24.20
2014,09,20,16,36,22.50
2014,09,20,16,37,22.50
2014,09,20,16,38,20.90
2014,09,20,16,39,27.40
2014,09,20,16,40,27.40
2014,09,20,16,41,32.20
2014,09,20,16,42,30.60
2014,09,20,16,43,30.60
2014,09,20,16,44,27.40
2014,09,20,16,45,29.00
2014,09,20,16,46,22.50
2014,09,20,16,47,20.90
2014,09,20,16,48,24.20
2014,09,20,16,49,24.20
2014,09,20,16,50,29.00
2014,09,20,16,51,25.70
2014,09,20,16,52,24.20
2014,09,20,16,53,25.70
2014,09,20,16,54,22.50
2014,09,20,16,55,24.20
2014,09,20,16,56,17.70
2014,09,20,16,57,19.30
2014,09,20,16,58,27.40
2014,09,20,16,59,29.00
2014,09,20,17,00,25.70
2014,09,20,17,01,25.70
2014,09,20,17,02,24.20
2014,09,20,17,03,27.40
2014,09,20,17,04,25.70
2014,09,20,17,05,25.70
2014,09,20,17,06,27.40
2014,09,20,17,07,25.70
2014,09,20,17,08,27.40
2014,09,20,17,09,29.00
2014,09,20,17,10,29.00
2014,09,20,17,11,27.40
2014,09,20,17,12,27.40
2014,09,20,17,13,29.00
2014,09,20,17,14,33.80
2014,09,20,17,15,30.60
2014,09,20,17,16,25.70
2014,09,20,17,17,22.50
2014,09,20,17,18,16.10
2014,09,20,17,19,19.30
2014,09,20,17,20,22.50
2014,09,20,17,21,22.50
2014,09,20,17,22,27.40
2014,09,20,17,23,30.60
2014,09,20,17,24,32.20
2014,09,20,17,25,30.60